Weather History for Chignik, AK

Change the Weather History Date:

Tuesday, November 20, 2012

  Actual Average Record
Temperature  
Mean Temperature 16 °F -  
Max Temperature 21 °F 38 °F 51 °F (2003)
Min Temperature 12 °F 31 °F 12 °F (2012)
Degree Days  
Heating Degree Days 48    
Moisture  
Dew Point 6 °F    
Average Humidity 63    
Maximum Humidity 68    
Minimum Humidity 57    
Precipitation  
Precipitation 0.00 in - - ()
Sea Level Pressure  
Sea Level Pressure 29.69 in    
Wind  
Wind Speed 15 mph (West)    
Max Wind Speed 22 mph    
Max Gust Speed 30 mph    
Visibility 10 miles    
Events      
Averages and records for this station are not official NWS values.
T = Trace of Precipitation, MM = Missing Value Source: NWS Daily Summary

Daily Weather History Graph

Daily Weather History Graph

Search for Another Location

Airport:

Trip Planner

Search our weather history database for the weather conditions in past years. The results will help you decide how hot, cold, wet, or windy it might be!

Date:

Astronomy

Nov. 20, 2012 Rise Set
Actual Time 9:23 AM AKST 5:14 PM AKST
Civil Twilight 8:39 AM AKST 5:58 PM AKST
Nautical Twilight 7:52 AM AKST 6:45 PM AKST
Astronomical Twilight 7:07 AM AKST 7:30 PM AKST
Moon 2:20 PM AKST (11/20) 12:30 AM AKST (11/20)
Length of Visible Light 9h 19m
Length of Day
7h 51m
First Quarter, 53% of the Moon is Illuminated
Nov 20
First Quarter
Nov 28
Full
Dec 6
Last Quarter
Dec 12
New
Dec 19
First Quarter

Hourly Weather History & Observations

Time (AKST) Temp. Windchill Dew Point Humidity Pressure Visibility Wind Dir Wind Speed Gust Speed Precip Events Conditions
12:16 AM 21.2 °F 7.8 °F 12.2 °F 68% 29.66 in 10.0 mi West 15.0 mph 24.2 mph N/A   Partly Cloudy
12:36 AM 21.2 °F 7.3 °F 10.4 °F 63% 29.66 in 10.0 mi West 16.1 mph 24.2 mph N/A   Clear
12:56 AM 21.2 °F 7.3 °F 12.2 °F 68% 29.67 in 10.0 mi West 16.1 mph 29.9 mph N/A   Partly Cloudy
1:16 AM 21.2 °F 6.8 °F 10.4 °F 63% 29.66 in 10.0 mi West 17.3 mph 26.5 mph N/A   Partly Cloudy
1:36 AM 21.2 °F 6.0 °F 12.2 °F 68% 29.66 in 10.0 mi West 19.6 mph 28.8 mph N/A   Partly Cloudy
1:56 AM 21.2 °F 7.8 °F 10.4 °F 63% 29.68 in 10.0 mi West 15.0 mph 27.6 mph N/A   Clear
2:16 AM 21.2 °F 11.7 °F 10.4 °F 63% 29.68 in 10.0 mi West 8.1 mph 21.9 mph N/A   Partly Cloudy
2:36 AM 21.2 °F 8.3 °F 10.4 °F 63% 29.68 in 10.0 mi West 13.8 mph 23.0 mph N/A   Partly Cloudy
2:56 AM 21.2 °F 8.3 °F 10.4 °F 63% 29.67 in 10.0 mi West 13.8 mph 26.5 mph N/A   Scattered Clouds
3:16 AM 19.4 °F 6.0 °F 10.4 °F 68% 29.68 in 10.0 mi West 13.8 mph 21.9 mph N/A   Partly Cloudy
3:36 AM 19.4 °F 5.0 °F 10.4 °F 68% 29.67 in 10.0 mi West 16.1 mph 23.0 mph N/A   Partly Cloudy
3:56 AM 19.4 °F 7.9 °F 8.6 °F 63% 29.68 in 10.0 mi West 10.4 mph 19.6 mph N/A   Partly Cloudy
4:16 AM 19.4 °F 10.4 °F 8.6 °F 63% 29.67 in 10.0 mi WNW 6.9 mph 17.3 mph N/A   Partly Cloudy
4:36 AM 19.4 °F 8.6 °F 10.4 °F 68% 29.67 in 10.0 mi WNW 9.2 mph 16.1 mph N/A   Mostly Cloudy
4:56 AM 19.4 °F 7.9 °F 8.6 °F 63% 29.67 in 10.0 mi WNW 10.4 mph - N/A   Scattered Clouds
5:16 AM 19.4 °F 6.6 °F 8.6 °F 63% 29.67 in 10.0 mi NW 12.7 mph 17.3 mph N/A   Scattered Clouds
5:36 AM 19.4 °F 7.2 °F 8.6 °F 63% 29.67 in 10.0 mi West 11.5 mph 19.6 mph N/A   Partly Cloudy
5:56 AM 19.4 °F 6.0 °F 8.6 °F 63% 29.68 in 10.0 mi West 13.8 mph - N/A   Mostly Cloudy
6:16 AM 19.4 °F 6.6 °F 8.6 °F 63% 29.68 in 10.0 mi WNW 12.7 mph 20.7 mph N/A   Scattered Clouds
6:36 AM 19.4 °F 6.0 °F 8.6 °F 63% 29.68 in 10.0 mi West 13.8 mph 18.4 mph N/A   Scattered Clouds
6:56 AM 19.4 °F 6.0 °F 8.6 °F 63% 29.68 in 10.0 mi WSW 13.8 mph 19.6 mph N/A   Scattered Clouds
7:16 AM 19.4 °F 4.5 °F 8.6 °F 63% 29.68 in 10.0 mi West 17.3 mph 27.6 mph N/A   Scattered Clouds
7:36 AM 19.4 °F 4.5 °F 8.6 °F 63% 29.68 in 10.0 mi WSW 17.3 mph 26.5 mph N/A   Mostly Cloudy
7:56 AM 19.4 °F 4.1 °F 8.6 °F 63% 29.67 in 10.0 mi WSW 18.4 mph 27.6 mph N/A   Scattered Clouds
8:16 AM 19.4 °F 6.6 °F 8.6 °F 63% 29.68 in 10.0 mi West 12.7 mph 21.9 mph N/A   Partly Cloudy
8:36 AM 17.6 °F 3.7 °F 6.8 °F 63% 29.68 in 10.0 mi West 13.8 mph 20.7 mph N/A   Clear
8:56 AM 17.6 °F 3.2 °F 6.8 °F 63% 29.68 in 10.0 mi WNW 15.0 mph 20.7 mph N/A   Clear
9:16 AM 17.6 °F 5.0 °F 6.8 °F 63% 29.69 in 10.0 mi WNW 11.5 mph 20.7 mph N/A   Clear
9:36 AM 17.6 °F 3.2 °F 5.0 °F 58% 29.69 in 10.0 mi WNW 15.0 mph 19.6 mph N/A   Clear
9:56 AM 17.6 °F 6.4 °F 5.0 °F 58% 29.70 in 10.0 mi WNW 9.2 mph 19.6 mph N/A   Clear
10:16 AM 17.6 °F 5.0 °F 5.0 °F 58% 29.70 in 10.0 mi West 11.5 mph 16.1 mph N/A   Clear
10:36 AM 15.8 °F 5.1 °F 5.0 °F 62% 29.70 in 10.0 mi WNW 8.1 mph 19.6 mph N/A   Clear
11:16 AM 17.6 °F 1.7 °F 6.8 °F 63% 29.69 in 10.0 mi WSW 18.4 mph 26.5 mph N/A   Clear
11:36 AM 17.6 °F 0.5 °F 6.8 °F 63% 29.68 in 10.0 mi West 21.9 mph 27.6 mph N/A   Clear
11:56 AM 15.8 °F -1.5 °F 5.0 °F 62% 29.70 in 10.0 mi West 20.7 mph 27.6 mph N/A   Clear
12:16 PM 15.8 °F -1.1 °F 5.0 °F 62% 29.69 in 10.0 mi West 19.6 mph 27.6 mph N/A   Clear
12:36 PM 15.8 °F -0.2 °F 6.8 °F 68% 29.69 in 10.0 mi West 17.3 mph 23.0 mph N/A   Clear
12:56 PM 15.8 °F 2.1 °F 5.0 °F 62% 29.69 in 10.0 mi West 12.7 mph 21.9 mph N/A   Clear
1:16 PM 15.8 °F -0.6 °F 3.2 °F 58% 29.69 in 10.0 mi WSW 18.4 mph 24.2 mph N/A   Clear
1:36 PM 15.8 °F 0.3 °F 5.0 °F 62% 29.69 in 10.0 mi WSW 16.1 mph 24.2 mph N/A   Clear
1:56 PM 15.8 °F -0.6 °F 3.2 °F 58% 29.68 in 10.0 mi West 18.4 mph 24.2 mph N/A   Clear
2:16 PM 14.0 °F -3.0 °F 3.2 °F 62% 29.69 in 10.0 mi West 18.4 mph 27.6 mph N/A   Clear
2:36 PM 14.0 °F -2.0 °F 3.2 °F 62% 29.69 in 10.0 mi West 16.1 mph 21.9 mph N/A   Clear
2:56 PM 15.8 °F -1.5 °F 3.2 °F 58% 29.69 in 10.0 mi West 20.7 mph 26.5 mph N/A   Clear
3:16 PM 14.0 °F -3.4 °F 3.2 °F 62% 29.69 in 10.0 mi West 19.6 mph 26.5 mph N/A   Clear
3:36 PM 14.0 °F -2.0 °F 1.4 °F 57% 29.69 in 10.0 mi West 16.1 mph - N/A   Clear
3:56 PM 14.0 °F -2.0 °F 1.4 °F 57% 29.69 in 10.0 mi West 16.1 mph 23.0 mph N/A   Clear
4:16 PM 14.0 °F -3.0 °F 1.4 °F 57% 29.70 in 10.0 mi West 18.4 mph 21.9 mph N/A   Clear
4:36 PM 14.0 °F -2.5 °F 3.2 °F 62% 29.69 in 10.0 mi West 17.3 mph 29.9 mph N/A   Clear
4:56 PM 12.2 °F -4.8 °F 1.4 °F 62% 29.69 in 10.0 mi West 17.3 mph 26.5 mph N/A   Clear
5:16 PM 12.2 °F -5.8 °F 1.4 °F 62% 29.70 in 10.0 mi West 19.6 mph 26.5 mph N/A   Clear
5:36 PM 12.2 °F -3.7 °F 1.4 °F 62% 29.70 in 10.0 mi West 15.0 mph 25.3 mph N/A   Clear
5:56 PM 12.2 °F -3.1 °F 3.2 °F 67% 29.70 in 10.0 mi West 13.8 mph 20.7 mph N/A   Clear
6:16 PM 12.2 °F -3.7 °F 3.2 °F 67% 29.71 in 10.0 mi West 15.0 mph 25.3 mph N/A   Clear
6:36 PM 12.2 °F -5.8 °F 3.2 °F 67% 29.70 in 10.0 mi WSW 19.6 mph - N/A   Clear
6:56 PM 12.2 °F -3.1 °F 3.2 °F 67% 29.71 in 10.0 mi West 13.8 mph - N/A   Clear
7:16 PM 12.2 °F -2.5 °F 3.2 °F 67% 29.71 in 10.0 mi West 12.7 mph 19.6 mph N/A   Clear
7:36 PM 14.0 °F -1.4 °F 3.2 °F 62% 29.71 in 10.0 mi West 15.0 mph - N/A   Clear
7:56 PM 14.0 °F -0.2 °F 1.4 °F 57% 29.71 in 10.0 mi West 12.7 mph 17.3 mph N/A   Clear
8:16 PM 12.2 °F -1.0 °F 3.2 °F 67% 29.71 in 10.0 mi West 10.4 mph 16.1 mph N/A   Clear
8:36 PM 14.0 °F -0.8 °F 3.2 °F 62% 29.71 in 10.0 mi West 13.8 mph - N/A   Clear
8:56 PM 14.0 °F -0.2 °F 3.2 °F 62% 29.71 in 10.0 mi West 12.7 mph 18.4 mph N/A   Clear
9:16 PM 14.0 °F -2.0 °F 3.2 °F 62% 29.71 in 10.0 mi West 16.1 mph 20.7 mph N/A   Clear
9:36 PM 14.0 °F -0.8 °F 3.2 °F 62% 29.71 in 10.0 mi West 13.8 mph - N/A   Clear
9:56 PM 14.0 °F 1.2 °F 3.2 °F 62% 29.71 in 10.0 mi West 10.4 mph - N/A   Clear
10:16 PM 14.0 °F -0.8 °F 3.2 °F 62% 29.72 in 10.0 mi West 13.8 mph 17.3 mph N/A   Clear
10:36 PM 12.2 °F -2.5 °F 3.2 °F 67% 29.72 in 10.0 mi WSW 12.7 mph - N/A   Clear
10:56 PM 12.2 °F -1.8 °F 3.2 °F 67% 29.73 in 10.0 mi West 11.5 mph - N/A   Partly Cloudy
11:16 PM 12.2 °F -1.8 °F 3.2 °F 67% 29.73 in 10.0 mi WSW 11.5 mph 18.4 mph N/A   Mostly Cloudy
11:36 PM 14.0 °F -2.0 °F 3.2 °F 62% 29.73 in 10.0 mi WSW 16.1 mph - N/A   Overcast
11:56 PM 14.0 °F -3.4 °F 1.4 °F 57% 29.72 in 10.0 mi SW 19.6 mph 25.3 mph N/A   Overcast